TimeCST,TemperatureF,Dew PointF,Humidity,Sea Level PressureIn,VisibilityMPH,Wind Direction,Wind SpeedMPH,Gust SpeedMPH,PrecipitationIn,Events,Conditions,WindDirDegrees,DateUTC
12:15 AM,34.0,20.3,57,30.19,10.0,SSW,11.5,-,N/A,,Clear,210,2013-11-14 06:15:00
12:35 AM,34.0,19.6,56,30.18,10.0,SSW,12.7,18.4,N/A,,Clear,210,2013-11-14 06:35:00
12:55 AM,34.2,19.4,55,30.17,10.0,SSW,13.8,20.7,N/A,,Clear,210,2013-11-14 06:55:00
1:15 AM,34.0,19.4,55,30.17,10.0,SSW,10.4,-,N/A,,Clear,210,2013-11-14 07:15:00
1:35 AM,33.8,20.1,57,30.18,10.0,SSW,10.4,16.1,N/A,,Clear,210,2013-11-14 07:35:00
1:55 AM,34.0,20.1,57,30.17,10.0,SSW,9.2,17.3,N/A,,Clear,210,2013-11-14 07:55:00
2:15 AM,34.0,20.1,57,30.17,10.0,SSW,12.7,17.3,N/A,,Clear,210,2013-11-14 08:15:00
2:35 AM,34.0,20.1,57,30.16,10.0,SSW,11.5,18.4,N/A,,Clear,210,2013-11-14 08:35:00
2:55 AM,34.2,20.1,57,30.16,10.0,SSW,11.5,20.7,N/A,,Clear,210,2013-11-14 08:55:00
3:15 AM,33.8,19.2,55,30.15,10.0,SSW,12.7,18.4,N/A,,Clear,210,2013-11-14 09:15:00
3:35 AM,34.0,18.5,53,30.13,10.0,SSW,15.0,19.6,N/A,,Clear,200,2013-11-14 09:35:00
3:55 AM,33.8,18.5,54,30.14,10.0,SSW,13.8,19.6,N/A,,Clear,210,2013-11-14 09:55:00
4:15 AM,33.6,18.5,54,30.13,10.0,SSW,10.4,17.3,N/A,,Clear,210,2013-11-14 10:15:00
4:35 AM,33.3,19.0,56,30.13,10.0,SSW,13.8,18.4,N/A,,Clear,210,2013-11-14 10:35:00
4:55 AM,33.4,19.2,56,30.12,10.0,SSW,13.8,18.4,N/A,,Clear,210,2013-11-14 10:55:00
5:15 AM,33.1,19.4,57,30.12,10.0,SSW,13.8,18.4,N/A,,Clear,210,2013-11-14 11:15:00
5:35 AM,33.1,19.6,58,30.11,10.0,SSW,12.7,20.7,N/A,,Clear,210,2013-11-14 11:35:00
5:55 AM,33.1,19.4,57,30.11,10.0,SSW,13.8,20.7,N/A,,Clear,210,2013-11-14 11:55:00
6:15 AM,32.9,19.6,58,30.10,10.0,SSW,11.5,18.4,N/A,,Clear,210,2013-11-14 12:15:00
6:35 AM,32.7,19.9,59,30.11,10.0,SW,12.7,19.6,N/A,,Clear,220,2013-11-14 12:35:00
6:55 AM,32.5,20.3,61,30.10,10.0,SSW,10.4,-,N/A,,Clear,210,2013-11-14 12:55:00
7:15 AM,32.9,20.3,60,30.11,10.0,SSW,12.7,18.4,N/A,,Clear,210,2013-11-14 13:15:00
7:35 AM,33.8,20.3,58,30.10,10.0,SSW,10.4,17.3,N/A,,Clear,210,2013-11-14 13:35:00
7:55 AM,34.7,20.7,57,30.11,10.0,SSW,13.8,20.7,N/A,,Clear,210,2013-11-14 13:55:00
8:15 AM,35.2,20.8,56,30.11,10.0,SSW,13.8,20.7,N/A,,Clear,210,2013-11-14 14:15:00
8:35 AM,36.5,21.4,54,30.11,10.0,SSW,13.8,19.6,N/A,,Clear,210,2013-11-14 14:35:00
8:55 AM,37.0,21.4,53,30.11,10.0,SSW,15.0,19.6,N/A,,Clear,210,2013-11-14 14:55:00
9:15 AM,37.9,22.1,53,30.10,10.0,SSW,15.0,-,N/A,,Clear,210,2013-11-14 15:15:00
9:35 AM,39.0,22.3,51,30.10,10.0,SSW,12.7,-,N/A,,Clear,210,2013-11-14 15:35:00
9:55 AM,40.3,22.6,49,30.09,10.0,SSW,12.7,-,N/A,,Clear,210,2013-11-14 15:55:00
10:15 AM,41.4,22.6,47,30.09,10.0,SSW,15.0,-,N/A,,Clear,200,2013-11-14 16:15:00
10:35 AM,42.8,23.0,46,30.08,10.0,SW,12.7,-,N/A,,Clear,220,2013-11-14 16:35:00
10:55 AM,43.9,23.5,45,30.07,10.0,SSW,15.0,-,N/A,,Clear,200,2013-11-14 16:55:00
11:15 AM,44.4,23.4,43,30.06,10.0,SSW,11.5,18.4,N/A,,Clear,210,2013-11-14 17:15:00
11:35 AM,45.9,23.5,41,30.04,10.0,SSW,13.8,18.4,N/A,,Clear,200,2013-11-14 17:35:00
11:55 AM,47.1,23.7,40,30.03,10.0,SSW,18.4,24.2,N/A,,Clear,210,2013-11-14 17:55:00
12:15 PM,47.5,23.9,40,30.03,10.0,SSW,16.1,24.2,N/A,,Clear,210,2013-11-14 18:15:00
12:35 PM,47.8,23.9,39,30.02,10.0,SSW,16.1,21.9,N/A,,Clear,210,2013-11-14 18:35:00
12:55 PM,50.2,25.2,38,30.01,10.0,SSW,13.8,18.4,N/A,,Clear,210,2013-11-14 18:55:00
1:15 PM,50.2,23.7,36,30.00,10.0,SSW,15.0,-,N/A,,Clear,210,2013-11-14 19:15:00
1:35 PM,50.9,24.8,36,29.99,10.0,SSW,15.0,21.9,N/A,,Clear,210,2013-11-14 19:35:00
1:55 PM,51.1,25.2,36,29.98,10.0,SSW,12.7,17.3,N/A,,Clear,210,2013-11-14 19:55:00
2:15 PM,50.9,24.6,36,29.97,10.0,SSW,15.0,20.7,N/A,,Clear,200,2013-11-14 20:15:00
2:35 PM,50.7,24.6,36,29.97,10.0,SSW,10.4,18.4,N/A,,Clear,210,2013-11-14 20:35:00
2:55 PM,50.7,23.9,35,29.97,10.0,SSW,12.7,20.7,N/A,,Clear,210,2013-11-14 20:55:00
3:15 PM,50.0,23.7,36,29.98,10.0,SSW,11.5,18.4,N/A,,Clear,210,2013-11-14 21:15:00
3:35 PM,50.0,24.4,37,29.98,10.0,SSW,9.2,-,N/A,,Clear,210,2013-11-14 21:35:00
3:55 PM,49.6,23.7,36,29.97,10.0,SSW,10.4,18.4,N/A,,Clear,210,2013-11-14 21:55:00
4:15 PM,49.6,23.2,35,29.96,10.0,SSW,9.2,19.6,N/A,,Clear,200,2013-11-14 22:15:00
4:35 PM,48.7,23.0,36,29.96,10.0,SSW,11.5,18.4,N/A,,Clear,200,2013-11-14 22:35:00
4:55 PM,48.7,22.5,36,29.96,10.0,SSW,10.4,19.6,N/A,,Clear,210,2013-11-14 22:55:00
5:15 PM,47.8,22.3,37,29.96,10.0,SSW,13.8,17.3,N/A,,Clear,210,2013-11-14 23:15:00
5:35 PM,47.8,21.9,36,29.96,10.0,SSW,11.5,16.1,N/A,,Clear,210,2013-11-14 23:35:00
5:55 PM,47.8,21.9,36,29.97,10.0,SW,10.4,-,N/A,,Clear,220,2013-11-14 23:55:00
6:15 PM,46.8,22.5,38,29.98,10.0,SW,5.8,-,N/A,,Clear,220,2013-11-15 00:15:00
6:35 PM,45.5,22.6,41,29.98,10.0,SW,5.8,-,N/A,,Clear,220,2013-11-15 00:35:00
6:55 PM,45.7,23.5,42,29.98,10.0,SSW,9.2,-,N/A,,Clear,210,2013-11-15 00:55:00
7:15 PM,46.0,23.5,41,29.98,10.0,SSW,10.4,16.1,N/A,,Clear,210,2013-11-15 01:15:00
7:35 PM,45.5,23.9,43,29.98,10.0,SSW,8.1,-,N/A,,Clear,210,2013-11-15 01:35:00
7:55 PM,45.3,24.8,45,29.99,10.0,SW,4.6,-,N/A,,Clear,220,2013-11-15 01:55:00
8:15 PM,44.6,25.0,46,29.99,10.0,SSW,9.2,-,N/A,,Clear,210,2013-11-15 02:15:00
8:35 PM,44.6,25.7,48,29.99,10.0,SSW,9.2,-,N/A,,Clear,200,2013-11-15 02:35:00
8:55 PM,43.7,25.7,49,29.99,10.0,SSW,8.1,-,N/A,,Clear,210,2013-11-15 02:55:00
9:15 PM,43.0,25.5,50,29.99,10.0,SSW,6.9,-,N/A,,Clear,210,2013-11-15 03:15:00
9:35 PM,42.4,25.7,52,29.99,10.0,SSW,6.9,-,N/A,,Clear,210,2013-11-15 03:35:00
9:55 PM,41.7,26.2,54,29.98,10.0,SSW,6.9,-,N/A,,Clear,200,2013-11-15 03:55:00
10:15 PM,42.1,26.2,53,29.99,10.0,SSW,9.2,-,N/A,,Clear,210,2013-11-15 04:15:00
10:35 PM,41.9,26.6,55,29.99,10.0,SSW,8.1,-,N/A,,Clear,210,2013-11-15 04:35:00
10:55 PM,41.2,26.6,56,29.99,10.0,SSW,6.9,-,N/A,,Clear,200,2013-11-15 04:55:00
11:15 PM,41.4,27.0,57,29.99,10.0,SSW,9.2,-,N/A,,Clear,210,2013-11-15 05:15:00
11:35 PM,41.9,26.6,55,29.99,10.0,SSW,9.2,-,N/A,,Clear,210,2013-11-15 05:35:00
11:55 PM,41.4,26.6,56,29.98,10.0,SSW,8.1,-,N/A,,Clear,210,2013-11-15 05:55:00